Вернуться в каталог

COSMOS 1577

АктивенНавигацияPO
NORAD 15077·PAYLOAD·🇷🇺 Russia

Запущен Jun 27, 1984 с Plesetsk Cosmodrome

Loading…

Ближайшие Пролёты (ближайшие 24 часа)

TLE

СвежийSource: Space-Track

Эпоха: Sep 14, 2026, 16:03 UTC

1 15077U 84067A   26257.66917551  .00000065  00000-0  51010-4 0  9999
2 15077  82.9582 140.1093 0036977 105.7698 283.5804 13.75685194865785

Отслеживайте COSMOS 1577 в реальном времени с AllMySat

Download on the App Store